This is the latest recevied weather packets stored in our database for station/object WA0GMH-1. If no packets are shown the sender has not sent any weather packets the latest 1 day(s).
| Time | Temp. | Humidity | Pressure | Rain* | Wind** | Luminosity | Snow |
|---|---|---|---|---|---|---|---|
| 1778038979 | 5.56° C | 79% | 1015.3 hPa | 0 mm | 0 m/s | - | - |
| 1778038577 | 6.11° C | 78% | 1015.5 hPa | 0 mm | 0 m/s | - | - |
| 1778038174 | 6.11° C | 78% | 1015.3 hPa | 0 mm | 0 m/s | - | - |
| 1778037772 | 6.11° C | 78% | 1015.3 hPa | 0 mm | 0 m/s | - | - |
| 1778037370 | 6.11° C | 78% | 1015.3 hPa | 0 mm | 0 m/s | - | - |
| 1778036968 | 6.67° C | 77% | 1015.3 hPa | 0 mm | 0 m/s | - | - |
| 1778036565 | 6.67° C | 77% | 1015.2 hPa | 0 mm | 0 m/s | - | - |
| 1778036163 | 6.67° C | 76% | 1014.9 hPa | 0 mm | 0 m/s | - | - |
| 1778035761 | 6.67° C | 75% | 1014.9 hPa | 0 mm | 0 m/s | - | - |
| 1778035359 | 7.22° C | 75% | 1014.6 hPa | 0 mm | 0 m/s | - | - |
| 1778034956 | 7.22° C | 74% | 1014.9 hPa | 0 mm | 0 m/s | - | - |
| 1778034554 | 7.22° C | 73% | 1014.8 hPa | 0 mm | 0 m/s | - | - |
| 1778034152 | 7.78° C | 73% | 1014.8 hPa | 0 mm | 0 m/s | - | - |
| 1778033750 | 7.78° C | 73% | 1014.4 hPa | 0 mm | 0 m/s | - | - |
| 1778033347 | 7.78° C | 72% | 1014.5 hPa | 0 mm | 0 m/s | - | - |
| 1778032945 | 8.33° C | 72% | 1014.4 hPa | 0 mm | 0 m/s | - | - |
| 1778032543 | 8.33° C | 71% | 1014.2 hPa | 0 mm | 0 m/s | - | - |
| 1778032141 | 8.33° C | 70% | 1014.2 hPa | 0 mm | 0 m/s | - | - |
| 1778031738 | 8.89° C | 70% | 1014.2 hPa | 0 mm | 0 m/s | - | - |
| 1778031336 | 8.89° C | 70% | 1013.9 hPa | 0 mm | 0 m/s | - | - |
| 1778030934 | 9.44° C | 70% | 1014.1 hPa | 0 mm | 0 m/s | - | - |
| 1778030532 | 9.44° C | 70% | 1014 hPa | 0 mm | 0 m/s | - | - |
| 1778030129 | 9.44° C | 69% | 1014.1 hPa | 0 mm | 0 m/s | - | - |
| 1778029727 | 10° C | 68% | 1014 hPa | 0 mm | 0 m/s | - | - |
| 1778029325 | 10° C | 68% | 1013.9 hPa | 0 mm | 0 m/s | - | - |
* Rain since midnight (hover to see other rain measurements)
** Current wind speed in m/s (hover to see current wind gust speed)